{"data":{"norad_id":59657,"epoch":"2026-05-25T04:48:14.514336Z","epoch_age_seconds":67818,"freshness":"FRESH","line1":"1 59657U 24084D   26145.20016799 -.00000296  00000+0 -12241-5 0  9995","line2":"2 59657  43.0053 329.7778 0002320 263.0564  97.0024 15.27579977116071","mean_motion":15.27579977,"eccentricity":0.000232,"inclination_deg":43.0053,"raan_deg":329.7778,"arg_perigee_deg":263.0564,"mean_anomaly_deg":97.0024,"bstar":-1.2241e-6,"rev_number":11607,"period_min":94.266750132978,"perigee_km":481.45736971967,"apogee_km":484.64096010019,"semimajor_km":6861.1861649099,"source":"CELESTRAK","updated_at":"2026-05-25T13:38:19.018019Z"}}